Tracking 23731 objects as of 26-Sep-2021
HD Live streaming from Space Station
objects crossing your sky now

TELECOM 1A

Track TELECOM 1A now!
TELECOM 1A is classified as:


NORAD ID: 15159
Int'l Code: 1984-081B
Perigee: 36,182.6 km
Apogee: 36,471.6 km
Inclination: 14.6 °
Period: 1,463.4 minutes
Semi major axis: 42698 km
RCS: 10.2909 m2 (large)
Launch date: August 4, 1984
Source: France (FR)
Launch site: FRENCH GUIANA (FRGUI)
aabbcc
Your satellite tracking list
Your tracking list is empty




NASA's NSSDC Master Catalog

Two Line Element Set (TLE):
1 15159U 84081B   21268.55682156 -.00000221  00000-0  00000+0 0  9994
2 15159  14.6263 346.6655 0033845  13.4965  16.0319  0.98398822101620
Source of the keplerian elements: AFSPC